TimeCST,TemperatureF,Dew PointF,Humidity,Sea Level PressureIn,VisibilityMPH,Wind Direction,Wind SpeedMPH,Gust SpeedMPH,PrecipitationIn,Events,Conditions,WindDirDegrees,DateUTC
12:53 AM,46.0,35.1,66,29.68,10.0,Calm,Calm,-,N/A,,Clear,0,2012-12-17 06:53:00
1:53 AM,46.0,37.9,73,29.67,10.0,NW,3.5,-,N/A,,Clear,320,2012-12-17 07:53:00
2:53 AM,45.0,37.9,76,29.67,10.0,WNW,4.6,-,N/A,,Clear,300,2012-12-17 08:53:00
3:53 AM,44.1,39.0,82,29.66,10.0,Calm,Calm,-,N/A,,Clear,0,2012-12-17 09:53:00
4:53 AM,39.9,37.9,93,29.65,10.0,Calm,Calm,-,N/A,,Clear,0,2012-12-17 10:53:00
5:53 AM,39.0,37.0,93,29.67,8.0,Calm,Calm,-,N/A,,Clear,0,2012-12-17 11:53:00
6:30 AM,39.2,37.4,93,29.68,6.0,NW,8.1,-,N/A,,Scattered Clouds,320,2012-12-17 12:30:00
6:38 AM,39.2,37.4,93,29.68,6.0,NNW,9.2,-,N/A,,Mostly Cloudy,330,2012-12-17 12:38:00
6:53 AM,39.0,37.0,93,29.69,5.0,Variable,5.8,-,N/A,,Overcast,0,2012-12-17 12:53:00
7:53 AM,39.9,39.0,97,29.72,4.0,NW,6.9,-,N/A,,Overcast,310,2012-12-17 13:53:00
8:53 AM,41.0,37.9,89,29.73,4.0,NW,5.8,-,N/A,,Overcast,320,2012-12-17 14:53:00
9:31 AM,42.8,37.4,81,29.73,5.0,Variable,6.9,-,N/A,,Overcast,0,2012-12-17 15:31:00
9:51 AM,42.8,37.4,81,29.74,6.0,NW,4.6,-,N/A,,Overcast,320,2012-12-17 15:51:00
9:53 AM,42.1,37.9,85,29.74,6.0,NW,5.8,-,N/A,,Overcast,310,2012-12-17 15:53:00
10:53 AM,43.0,37.0,80,29.75,7.0,WNW,5.8,-,N/A,,Overcast,300,2012-12-17 16:53:00
11:10 AM,42.8,37.4,81,29.74,7.0,Variable,6.9,-,N/A,,Overcast,0,2012-12-17 17:10:00
11:53 AM,44.1,37.0,76,29.74,8.0,WNW,8.1,-,N/A,,Overcast,300,2012-12-17 17:53:00
12:53 PM,45.0,37.0,74,29.73,10.0,WNW,10.4,16.1,N/A,,Overcast,290,2012-12-17 18:53:00
1:37 PM,48.2,37.4,66,29.72,10.0,Variable,5.8,-,N/A,,Partly Cloudy,0,2012-12-17 19:37:00
1:53 PM,48.0,36.0,63,29.73,10.0,WNW,9.2,18.4,N/A,,Partly Cloudy,290,2012-12-17 19:53:00
2:53 PM,48.0,36.0,63,29.73,9.0,WNW,8.1,-,N/A,,Clear,300,2012-12-17 20:53:00
3:53 PM,48.0,35.1,61,29.75,8.0,WNW,8.1,-,N/A,,Clear,300,2012-12-17 21:53:00
6:53 PM,39.0,35.1,86,29.80,9.0,Calm,Calm,-,N/A,,Clear,0,2012-12-18 00:53:00
7:53 PM,39.0,34.0,82,29.81,9.0,NW,3.5,-,N/A,,Clear,310,2012-12-18 01:53:00
8:53 PM,39.0,34.0,82,29.83,8.0,Calm,Calm,-,N/A,,Clear,0,2012-12-18 02:53:00
9:53 PM,37.0,34.0,89,29.84,7.0,Calm,Calm,-,N/A,,Clear,0,2012-12-18 03:53:00
10:53 PM,34.0,33.1,96,29.84,4.0,Calm,Calm,-,N/A,,Clear,0,2012-12-18 04:53:00
11:32 PM,33.8,30.2,87,29.82,2.5,Calm,Calm,-,N/A,,Clear,0,2012-12-18 05:32:00
11:43 PM,33.8,32.0,93,29.82,4.0,Calm,Calm,-,N/A,,Clear,0,2012-12-18 05:43:00
11:53 PM,34.0,32.0,92,29.83,5.0,Calm,Calm,-,N/A,,Clear,0,2012-12-18 05:53:00